[[{"header":{"parameterUnit":"m.s-1","parameterCategory":1,"la1":30.2991,"la2":30.254,"lo1":-89.0895,"lo2":-89.0444,"dy":0.0017,"dx":0.0017,"nx":28,"ny":28,"refTime":"2025-06-02T21:00:00:Z","depth":0,"parameterNumber":2,"parameterNumberName":"U-component_of_WINDS"},"data":[0,0,0,0,0,0,0,0,0,0,0,0,0,0,0,0,0,0,0,0,0,0,0,0,0,0,0,0,0,0,0,0,0,0,0,0,0,0,0,0,0,0,0,0,0,0,0,0,0,0,0,0,0,0,0,0,0,0,-3.7282,-3.7283,0,-3.7436,-3.7438,-3.744,-3.7426,-3.7424,-3.7421,-3.7419,-3.7578,-3.7584,-3.759,0,0,0,0,0,0,0,0,0,0,0,0,0,-3.6975,-3.6981,-3.7282,-3.7283,-3.7285,-3.7436,-3.7438,-3.744,-3.7426,-3.7424,-3.7421,-3.7418,-3.7576,-3.7583,-3.7591,0,0,0,0,0,0,0,0,0,0,0,0,0,-3.7117,-3.6983,-3.7281,-3.7297,-3.73,-3.7435,-3.7438,-3.7441,-3.7427,-3.7424,-3.742,-3.7417,-3.7573,-3.7583,-3.7592,-3.7722,0,0,-3.7622,-3.7626,0,0,0,0,0,0,0,0,-3.7109,-3.7128,-3.7293,-3.7296,-3.7299,-3.7408,-3.7388,-3.7535,-3.7428,-3.7379,-3.7419,-3.7415,-3.7524,-3.7538,-3.7574,-3.773,-3.7737,-3.7622,-3.7628,-3.7632,-3.7635,0,0,0,0,0,0,0,-3.7099,-3.7121,-3.7343,-3.7295,-3.7299,-3.7296,-3.7312,-3.7416,-3.747,-3.7383,-3.7382,-3.7401,-3.7525,-3.7565,-3.7578,-3.7739,-3.7622,-3.7631,-3.7637,-3.764,-3.8008,-3.8012,0,0,0,0,0,0,-3.7085,-3.7113,-3.7338,-3.7347,-3.7193,-3.7305,-3.7323,-3.7377,-3.7468,-3.7479,-3.7403,-3.7399,-3.755,-3.7567,-3.7584,-3.7741,-3.7632,-3.7641,-3.7647,-3.8004,-3.8009,-3.8013,0,0,0,0,0,0,-3.7079,-3.7106,-3.7332,-3.723,-3.7259,-3.7314,-3.7375,-3.7382,-3.7421,-3.7484,-3.7493,-3.7434,-3.7548,-3.757,-3.7688,-3.7747,-3.7646,-3.7654,-3.8,-3.8006,-3.8011,-3.8058,0,0,0,0,0,0,-3.707,-3.7103,-3.7153,-3.7231,-3.7264,-3.7433,-3.7378,-3.7387,-3.7438,-3.7434,-3.7515,-3.7525,-3.7547,-3.7673,-3.7697,-3.7758,-3.7662,-3.7994,-3.8002,-3.8009,-3.8051,-3.8065,-3.8076,0,0,0,0,0,-3.7059,-3.7161,-3.7156,-3.7183,-3.7328,-3.7437,-3.7455,-3.7478,-3.7443,-3.7493,-3.7534,-3.7523,-3.7737,-3.7686,-3.7712,-3.7777,-3.7991,-3.8,-3.8009,-3.8046,-3.8062,-3.8076,0,0,0,0,0,0,-3.7089,-3.7171,-3.7167,-3.7297,-3.736,-3.7434,-3.7499,-3.7495,-3.757,-3.7563,-3.7588,-3.7607,-3.7725,-3.7763,-3.7705,-3.7907,-3.7859,-3.7874,-3.7878,-3.7894,-3.7906,-3.7894,-3.767,0,0,0,0,0,-3.711,-3.7191,-3.7259,-3.7367,-3.7399,-3.7444,-3.7492,-3.7504,-3.757,-3.7597,-3.7646,-3.7711,-3.7792,-3.7846,-3.7924,-3.8057,-3.8074,-3.8115,-3.8127,-3.8137,-3.8149,-3.8221,-3.824,-3.8043,-3.8043,-3.8043,0,0,-3.7156,-3.7211,-3.726,-3.7375,-3.7425,-3.7508,-3.7466,-3.7556,-3.7618,-3.7611,-3.7724,-3.7763,-3.7837,-3.7962,-3.802,-3.7997,-3.8208,-3.8149,-3.8156,-3.8163,-3.8232,-3.8251,-3.8268,-3.8049,-3.8048,-3.8047,0,0,-3.728,-3.7331,-3.7425,-3.7477,-3.7553,-3.7582,-3.7605,-3.768,-3.7705,-3.7819,-3.7815,-3.7889,-3.803,-3.8083,-3.8128,-3.8272,-3.8265,-3.8298,-3.8362,-3.8432,-3.8447,-3.8461,-3.8512,-3.853,-3.831,-3.831,-3.831,0,-3.7327,-3.7452,-3.7475,-3.7566,-3.7615,-3.7612,-3.7708,-3.7757,-3.7856,-3.789,-3.7864,-3.8039,-3.8089,-3.8226,-3.8261,-3.8299,-3.8325,-3.8288,-3.8443,-3.8458,-3.8471,-3.8519,-3.8538,-3.8313,-3.8313,-3.8312,-3.8312,0,-3.7505,-3.7592,-3.7659,-3.7754,-3.7812,-3.7905,-3.7941,-3.7997,-3.8004,-3.8036,-3.8152,-3.8212,-3.8302,-3.8336,-3.8345,-3.8475,-3.8458,-3.8438,-3.8389,-3.8492,-3.8538,-3.8557,-3.8318,-3.8317,-3.8316,-3.8315,0,0,-3.7652,-3.7757,-3.7782,-3.7824,-3.7908,-3.7976,-3.8069,-3.8156,-3.8203,-3.8272,-3.8349,-3.8468,-3.8449,-3.8501,-3.8515,-3.8577,-3.8686,-3.8548,-3.855,-3.8571,-3.8832,-3.8846,-3.8867,-3.8682,-3.8686,-3.8689,-3.8825,0,-3.7784,-3.7948,-3.7971,-3.8115,-3.8195,-3.8194,-3.8274,-3.8335,-3.8367,-3.8439,-3.8475,-3.8558,-3.8528,-3.8559,-3.862,-3.866,-3.8738,-3.865,-3.8754,-3.8757,-3.8734,-3.8891,-3.8906,-3.9032,-3.8843,-3.8846,-3.8848,0,-3.796,-3.8032,-3.8184,-3.8256,-3.8291,-3.8363,-3.8445,-3.8515,-3.8583,-3.8602,-3.8659,-3.8666,-3.8762,-3.871,-3.8843,-3.8782,-3.8826,-3.8852,-3.8858,-3.8867,-3.8808,-3.8903,-3.9073,-3.9091,-3.8877,-3.8875,-3.8873,0,-3.805,-3.8185,-3.8294,-3.833,-3.8418,-3.8468,-3.8507,-3.8572,-3.8623,-3.8695,-3.8728,-3.8811,-3.8856,-3.8919,-3.8948,-3.8908,-3.9078,-3.9029,-3.9096,-3.9095,-3.9131,-3.9128,-3.9308,-3.9161,-3.9161,-3.9161,-3.916,0,-3.8194,-3.8287,-3.8335,-3.8402,-3.8505,-3.8531,-3.8634,-3.8671,-3.8728,-3.8802,-3.8806,-3.8875,-3.891,-3.8984,-3.9007,-3.9112,-3.9133,-3.9151,-3.9156,-3.915,-3.9147,-3.9178,-3.9169,-3.9166,-3.9165,-3.9164,-3.9163,0,-3.8312,-3.8348,-3.8466,-3.8539,-3.8559,-3.8632,-3.8695,-3.8759,-3.8791,-3.8884,-3.8907,-3.8957,-3.9044,-3.908,-3.9187,-3.9203,-3.9324,-3.9322,-3.93,-3.9301,-3.9365,-3.9358,-3.9571,-3.96,-3.9435,-3.9436,-3.9438,0,-3.8401,-3.8473,-3.8553,-3.8602,-3.8642,-3.8722,-3.8774,-3.8802,-3.8856,-3.8939,-3.8993,-3.908,-3.9152,-3.9292,-3.9338,-3.942,-3.942,-3.9488,-3.9432,-3.9423,-3.9419,-3.9414,-3.9421,-3.9498,-3.95,-3.9501,-3.9502,0,-3.8555,-3.8569,-3.8644,-3.8724,-3.8786,-3.8851,-3.8915,-3.8955,-3.8993,-3.9053,-3.9143,-3.9198,-3.9307,-3.9394,-3.9478,-3.9518,-3.9517,-3.952,-3.954,-3.9534,-3.9517,-3.9526,-3.9327,-3.9515,-3.9514,-3.9513,-3.9512,-3.9511,-3.8661,-3.8723,-3.8789,-3.8872,-3.8922,-3.8981,-3.9045,-3.9084,-3.9159,-3.925,-3.9262,-3.9358,-3.9424,-3.9537,-3.9581,-3.9656,-3.9638,-3.9666,-3.9673,-3.968,-3.9683,-3.9506,-3.9671,-3.9671,-3.9671,-3.9671,-3.967,0,-3.8814,-3.8856,-3.8932,-3.902,-3.9084,-3.9077,-3.9147,-3.9202,-3.9285,-3.9347,-3.9417,-3.9519,-3.9603,-3.9655,-3.9739,-3.9789,-3.9791,-3.981,-3.9806,-3.9815,-3.9695,-3.9669,-3.9808,-3.9808,-3.9808,-3.9807,-3.9807,-3.9807,-3.8901,-3.9006,-3.9028,-3.9158,-3.92,-3.9293,-3.9333,-3.9387,-3.9436,-3.955,-3.9619,-3.9653,-3.9711,-3.9799,-3.9875,-3.9889,-3.9919,-3.994,-3.9952,-3.9838,-3.9824,-3.981,-3.9786,-3.9947,-3.9947,-4.0065,-4.0066,-4.0067]},{"header":{"parameterUnit":"m.s-1","parameterCategory":1,"la1":30.2991,"la2":30.254,"lo1":-89.0895,"lo2":-89.0444,"dy":0.0017,"dx":0.0017,"nx":28,"ny":28,"refTime":"2025-06-02T21:00:00:Z","depth":0,"parameterNumber":3,"parameterNumberName":"V-component_of_WINDS"},"data":[0,0,0,0,0,0,0,0,0,0,0,0,0,0,0,0,0,0,0,0,0,0,0,0,0,0,0,0,0,0,0,0,0,0,0,0,0,0,0,0,0,0,0,0,0,0,0,0,0,0,0,0,0,0,0,0,0,0,3.6647,3.6647,0,3.6668,3.6668,3.6668,3.6608,3.6606,3.6604,3.6602,3.6621,3.6623,3.6625,0,0,0,0,0,0,0,0,0,0,0,0,0,3.6553,3.6555,3.6647,3.6647,3.6648,3.6668,3.6668,3.6668,3.6608,3.6606,3.6604,3.6602,3.662,3.6623,3.6626,0,0,0,0,0,0,0,0,0,0,0,0,0,3.6586,3.6555,3.6647,3.662,3.6618,3.6668,3.6668,3.6668,3.6609,3.6606,3.6603,3.6601,3.6619,3.6623,3.6626,3.6702,0,0,3.6636,3.6637,0,0,0,0,0,0,0,0,3.6584,3.6589,3.6624,3.6622,3.662,3.6632,3.6641,3.6679,3.6609,3.6612,3.6602,3.6599,3.6627,3.6629,3.6639,3.6703,3.6703,3.6636,3.6638,3.664,3.6641,0,0,0,0,0,0,0,3.6582,3.6588,3.6655,3.6624,3.6622,3.6606,3.6608,3.6648,3.6635,3.6612,3.6607,3.6611,3.6625,3.6636,3.6639,3.6704,3.6636,3.6639,3.6641,3.6643,3.683,3.6833,0,0,0,0,0,0,3.6583,3.6586,3.6654,3.6656,3.6595,3.661,3.6612,3.6631,3.6634,3.6632,3.6613,3.6608,3.6632,3.6635,3.664,3.6728,3.664,3.6643,3.6645,3.6827,3.683,3.6834,0,0,0,0,0,0,3.6581,3.659,3.6654,3.662,3.6627,3.6615,3.6637,3.6633,3.6644,3.6635,3.6632,3.6627,3.663,3.6635,3.6687,3.6728,3.6644,3.6647,3.6823,3.6828,3.6832,3.6905,0,0,0,0,0,0,3.6579,3.659,3.6619,3.6621,3.6629,3.6701,3.6639,3.6635,3.665,3.6643,3.6647,3.6645,3.6628,3.6682,3.669,3.6731,3.665,3.6819,3.6825,3.6831,3.6899,3.6912,3.6923,0,0,0,0,0,3.6576,3.6638,3.6621,3.6629,3.6665,3.6704,3.6708,3.6688,3.6654,3.6682,3.6677,3.6645,3.6722,3.6688,3.6696,3.6739,3.6817,3.6824,3.683,3.6894,3.6909,3.6922,0,0,0,0,0,0,3.664,3.6638,3.6618,3.6684,3.6695,3.6694,3.6729,3.6705,3.6725,3.6717,3.669,3.6692,3.6748,3.6749,3.6711,3.6812,3.6764,3.6772,3.6809,3.6824,3.6835,3.6833,3.6653,0,0,0,0,0,3.6662,3.6694,3.6691,3.6748,3.6755,3.6742,3.6757,3.6741,3.6751,3.6754,3.6753,3.6763,3.6789,3.6807,3.683,3.69,3.6899,3.6933,3.6945,3.6954,3.6961,3.6997,3.7012,3.6856,3.6856,3.6855,0,0,3.6707,3.671,3.6732,3.6761,3.6768,3.6801,3.6746,3.6783,3.6807,3.676,3.6808,3.6808,3.6817,3.6878,3.6904,3.688,3.7005,3.6963,3.6971,3.6972,3.7006,3.702,3.7033,3.686,3.6859,3.6859,0,0,3.6806,3.6812,3.6861,3.6869,3.688,3.687,3.6882,3.6885,3.6883,3.6932,3.6897,3.6925,3.6971,3.6979,3.6989,3.7092,3.7063,3.7101,3.7161,3.7196,3.7208,3.7219,3.7254,3.7267,3.7108,3.7108,3.7109,0,3.686,3.691,3.6889,3.6928,3.6942,3.6902,3.6951,3.6959,3.6977,3.6987,3.6959,3.7016,3.702,3.7081,3.7107,3.7117,3.7128,3.7099,3.7208,3.7219,3.7229,3.7262,3.7276,3.7113,3.7112,3.7112,3.7111,0,3.6975,3.701,3.7048,3.7067,3.7085,3.7129,3.7113,3.7134,3.7116,3.711,3.716,3.7163,3.7186,3.72,3.7183,3.7259,3.7243,3.7213,3.7163,3.7248,3.7279,3.7292,3.7119,3.7117,3.7116,3.7115,0,0,3.7114,3.7121,3.7135,3.7143,3.7153,3.7179,3.7221,3.7245,3.7262,3.7276,3.731,3.735,3.7322,3.7334,3.7317,3.7348,3.7428,3.7314,3.7313,3.7333,3.7511,3.7533,3.7548,3.741,3.7412,3.7414,3.751,0,3.721,3.7283,3.7265,3.7337,3.7368,3.7331,3.7367,3.7377,3.7372,3.7397,3.7392,3.742,3.7382,3.7388,3.7418,3.7412,3.7463,3.7405,3.7439,3.7441,3.7437,3.7564,3.7587,3.7677,3.7522,3.7524,3.7525,0,3.7332,3.7351,3.7426,3.743,3.7443,3.7476,3.7496,3.7521,3.7531,3.7525,3.7539,3.7516,3.7556,3.7508,3.7563,3.7524,3.7537,3.7537,3.754,3.7541,3.7487,3.7567,3.7705,3.7718,3.7544,3.7543,3.7541,0,3.7423,3.7468,3.7519,3.7527,3.7534,3.7557,3.7561,3.7568,3.7584,3.7601,3.7611,3.7633,3.7645,3.7662,3.7646,3.7612,3.7703,3.7653,3.7698,3.7698,3.7717,3.7715,3.7858,3.7729,3.7728,3.7728,3.7728,0,3.7532,3.7579,3.756,3.7591,3.7642,3.7621,3.7672,3.7672,3.7678,3.7708,3.7678,3.7706,3.7683,3.7709,3.7697,3.7743,3.7749,3.7745,3.7741,3.7747,3.7747,3.7753,3.7746,3.7732,3.7731,3.773,3.773,0,3.7642,3.7632,3.7684,3.7686,3.7688,3.7725,3.7727,3.7755,3.7749,3.7786,3.7794,3.7783,3.7812,3.7798,3.7828,3.782,3.788,3.7868,3.7876,3.7873,3.7917,3.7913,3.8067,3.8086,3.7946,3.7948,3.7949,0,3.7711,3.7746,3.7753,3.7771,3.7777,3.7806,3.7822,3.7803,3.7821,3.7835,3.7861,3.7887,3.7907,3.7955,3.795,3.7972,3.796,3.8013,3.7963,3.7968,3.7959,3.7956,3.7959,3.8022,3.8023,3.8025,3.8026,0,3.7834,3.7827,3.7852,3.7875,3.7895,3.7911,3.7926,3.7942,3.7923,3.7945,3.7974,3.799,3.8021,3.8047,3.8067,3.807,3.8045,3.8042,3.8053,3.8058,3.8061,3.8059,3.7902,3.8038,3.8037,3.8036,3.8035,3.8035,3.7925,3.7954,3.7963,3.7991,3.8,3.8014,3.8041,3.8038,3.8063,3.8087,3.8074,3.8109,3.8117,3.8141,3.8148,3.8173,3.8152,3.8169,3.8173,3.8177,3.8182,3.8059,3.8177,3.8177,3.8177,3.8176,3.8176,0,3.8045,3.8049,3.8076,3.8097,3.8119,3.8095,3.8109,3.8129,3.8159,3.817,3.8191,3.8224,3.825,3.8247,3.827,3.8292,3.828,3.8298,3.8295,3.8296,3.82,3.8188,3.8307,3.8307,3.8307,3.8306,3.8306,3.8306,3.811,3.8158,3.8153,3.8205,3.8208,3.8242,3.8253,3.8265,3.8273,3.8313,3.8334,3.8332,3.8337,3.836,3.8383,3.8381,3.839,3.8412,3.8406,3.8316,3.8303,3.8291,3.8278,3.8414,3.8415,3.8499,3.85,3.8501]}]]